User: anonymous   Login
Location: Tel Aviv
(32.0670°N, 34.7670°E)
Time: 23:19:46
(UTC+03:00)
Language:

KAITUO 1B - Orbit

View from above orbital plane
View from above orbital plane
View from above satellite
View from above satellite

Ground track
Ground track

The orbit data is extracted from the following two-line orbital elements,

1 40912U 15049P   23089.58585669  .00043941  00000-0  11805-2 0  9997
2 40912  97.4262 106.1380 0010048  21.2218  76.7923 15.37738296417508
Epoch (UTC): 30 March 2023 14:03:38
Eccentricity: 0.0010048
inclination: 97.4262°
perigee height: 446 km
apogee height: 459 km
right ascension of ascending node: 106.1380°
argument of perigee: 21.2218°
revolutions per day: 15.37738296
mean anomaly at epoch: 76.7923°
orbit number at epoch: 41750

The dashed part of the orbit path shows where the satellite is in the earth's shadow,  

DLR